| time (UTC) | temp F | wind direction | speed knots | gust knots | rain 1hr in | rain 24hr in | rain mn in | humidity % | barometer mb |
| 20260506135030 | 47 | 44 | 2.6 | 7.8 | 0.00 | 0.00 | 0.00 | 92 | 1011.0 |
| 20260506134007 | 47 | 5 | 2.6 | 7.8 | 0.00 | 0.00 | 0.00 | 92 | 1011.0 |
| 20260506133015 | 47 | 11 | 2.6 | 9.6 | 0.00 | 0.00 | 0.00 | 91 | 1010.3 |
| 20260506125714 | 48 | 26 | 2.6 | 10.4 | 0.00 | 0.00 | 0.00 | 89 | 1009.3 |
| 20260506124710 | 48 | 0 | 3.5 | 10.4 | 0.00 | 0.00 | 0.00 | 89 | 1009.5 |
| 20260506123647 | 48 | 349 | 3.5 | 8.7 | 0.00 | 0.00 | 0.00 | 89 | 1009.2 |
| 20260506122652 | 48 | 0 | 2.6 | 10.4 | 0.00 | 0.00 | 0.00 | 88 | 1009.1 |
| 20260506121633 | 48 | 34 | 2.6 | 10.4 | 0.00 | 0.00 | 0.00 | 88 | 1008.3 |
| 20260506120648 | 48 | 11 | 3.5 | 7.0 | 0.00 | 0.00 | 0.00 | 87 | 1008.1 |
| 20260506115626 | 49 | 344 | 3.5 | 10.4 | 0.00 | 0.00 | 0.00 | 87 | 1007.9 |
| 20260506114602 | 49 | 346 | 2.6 | 10.4 | 0.00 | 0.00 | 0.00 | 87 | 1007.7 |
| 20260506113548 | 49 | 44 | 3.5 | 9.6 | 0.00 | 0.00 | 0.00 | 87 | 1007.6 |
| 20260506112606 | 49 | 333 | 2.6 | 7.8 | 0.00 | 0.00 | 0.00 | 88 | 1007.7 |
| 20260506111621 | 49 | 32 | 3.5 | 7.8 | 0.00 | 0.00 | 0.00 | 87 | 1007.8 |
| 20260506110559 | 50 | 344 | 1.7 | 7.8 | 0.00 | 0.00 | 0.00 | 87 | 1007.9 |
| 20260506104429 | 50 | 5 | 2.6 | 6.1 | 0.00 | 0.00 | 0.00 | 87 | 1007.7 |
| 20260506103450 | 50 | 341 | 2.6 | 7.8 | 0.00 | 0.00 | 0.00 | 87 | 1007.4 |
| 20260506102453 | 50 | 339 | 2.6 | 7.8 | 0.00 | 0.00 | 0.00 | 87 | 1007.0 |
| 20260506101501 | 51 | 14 | 1.7 | 5.2 | 0.00 | 0.00 | 0.00 | 87 | 1006.8 |
| 20260506100434 | 51 | 38 | 2.6 | 8.7 | 0.00 | 0.00 | 0.00 | 88 | 1006.6 |
| 20260506095442 | 51 | 57 | 2.6 | 8.7 | 0.00 | 0.00 | 0.00 | 87 | 1006.7 |
| 20260506094451 | 51 | 17 | 2.6 | 7.0 | 0.00 | 0.00 | 0.00 | 87 | 1006.6 |
| 20260506093449 | 51 | 5 | 2.6 | 7.0 | 0.00 | 0.00 | 0.00 | 87 | 1006.7 |
| 20260506092433 | 52 | 344 | 2.6 | 7.0 | 0.00 | 0.00 | 0.00 | 87 | 1006.4 |
| 20260506091455 | 52 | 32 | 2.6 | 7.0 | 0.00 | 0.00 | 0.00 | 87 | 1006.3 |
| 20260506090432 | 52 | 38 | 2.6 | 7.0 | 0.00 | 0.00 | 0.00 | 87 | 1006.0 |
| 20260506085423 | 52 | 30 | 3.5 | 7.8 | 0.00 | 0.00 | 0.00 | 87 | 1006.0 |
| 20260506084426 | 52 | 0 | 3.5 | 8.7 | 0.00 | 0.00 | 0.00 | 86 | 1005.9 |
| 20260506083443 | 53 | 19 | 2.6 | 8.7 | 0.00 | 0.00 | 0.00 | 86 | 1006.0 |
| 20260506082455 | 53 | 51 | 2.6 | 8.7 | 0.00 | 0.00 | 0.00 | 86 | 1006.0 |
| 20260506081504 | 53 | 344 | 3.5 | 8.7 | 0.00 | 0.00 | 0.00 | 86 | 1005.8 |
| 20260506080504 | 53 | 78 | 2.6 | 8.7 | 0.00 | 0.00 | 0.00 | 86 | 1005.8 |
| 20260506072247 | 54 | 31 | 2.6 | 8.7 | 0.00 | 0.00 | 0.00 | 85 | 1005.6 |
| 20260506071219 | 55 | 0 | 2.6 | 8.7 | 0.00 | 0.00 | 0.00 | 85 | 1005.7 |
| 20260506070155 | 56 | 338 | 1.7 | 7.0 | 0.00 | 0.00 | 0.00 | 84 | 1005.3 |
| 20260506061024 | 58 | 76 | 2.6 | 7.0 | 0.00 | 0.00 | 0.00 | 81 | 1005.2 |
| 20260506044725 | 62 | 55 | 2.6 | 7.0 | 0.00 | 0.00 | 0.00 | 75 | 1005.2 |
| 20260506043720 | 62 | 347 | 3.5 | 7.8 | 0.00 | 0.00 | 0.00 | 75 | 1005.1 |
| 20260506042712 | 62 | 46 | 1.7 | 7.8 | 0.00 | 0.00 | 0.00 | 75 | 1005.0 |
| 20260506041700 | 62 | 40 | 2.6 | 6.1 | 0.00 | 0.00 | 0.00 | 75 | 1004.8 |
| 20260506040659 | 63 | 43 | 2.6 | 9.6 | 0.00 | 0.00 | 0.00 | 74 | 1004.8 |
| 20260506034529 | 64 | 19 | 3.5 | 9.6 | 0.00 | 0.00 | 0.00 | 72 | 1004.8 |
| 20260506033519 | 64 | 26 | 4.3 | 9.6 | 0.00 | 0.00 | 0.00 | 72 | 1004.6 |
| 20260506032510 | 64 | 46 | 3.5 | 9.6 | 0.00 | 0.00 | 0.00 | 73 | 1004.6 |
| 20260506031437 | 65 | 20 | 2.6 | 8.7 | 0.00 | 0.00 | 0.00 | 73 | 1004.5 |
| 20260506025317 | 67 | 103 | 1.7 | 5.2 | 0.00 | 0.00 | 0.00 | 73 | 1004.0 |
| 20260506024341 | 67 | 50 | 1.7 | 7.0 | 0.00 | 0.00 | 0.00 | 72 | 1003.9 |
| 20260506023405 | 68 | 61 | 1.7 | 7.0 | 0.00 | 0.00 | 0.00 | 72 | 1003.3 |
| 20260506022359 | 68 | 40 | 2.6 | 5.2 | 0.00 | 0.00 | 0.00 | 72 | 1003.3 |
| 20260506021349 | 69 | 22 | 1.7 | 8.7 | 0.00 | 0.00 | 0.00 | 71 | 1003.3 |
| 20260506020320 | 70 | 53 | 2.6 | 8.7 | 0.00 | 0.00 | 0.00 | 69 | 1003.0 |
| 20260506014149 | 74 | 5 | 0.9 | 4.3 | 0.00 | 0.00 | 0.00 | 68 | 1002.0 |
| 20260506013154 | 75 | 246 | 0.0 | 0.0 | 0.00 | 0.00 | 0.00 | 67 | 1001.4 |
| 20260506011044 | 75 | 254 | 0.0 | 0.0 | 0.00 | 0.00 | 0.00 | 65 | 1001.0 |
| 20260506010023 | 76 | 225 | 0.0 | 2.6 | 0.00 | 0.00 | 0.00 | 63 | 1000.7 |
| 20260506005034 | 76 | 225 | 0.0 | 1.7 | 0.00 | 0.00 | 0.00 | 62 | 1000.8 |
| 20260506004043 | 77 | 225 | 0.0 | 0.9 | 0.00 | 0.00 | 0.00 | 60 | 1000.8 |
| 20260506003029 | 78 | 225 | 0.0 | 2.6 | 0.00 | 0.00 | 0.00 | 61 | 1000.8 |
| 20260506002027 | 79 | 225 | 0.0 | 0.9 | 0.00 | 0.00 | 0.00 | 60 | 1000.9 |
| 20260506001013 | 79 | 225 | 0.0 | 0.9 | 0.00 | 0.00 | 0.00 | 60 | 1000.9 |
| 20260505234906 | 82 | 225 | 0.9 | 5.2 | 0.00 | 0.00 | 0.00 | 53 | 1001.0 |
| 20260505231531 | 83 | 223 | 1.7 | 5.2 | 0.00 | 0.00 | 0.00 | 52 | 1001.1 |
| 20260505230457 | 83 | 229 | 2.6 | 5.2 | 0.00 | 0.00 | 0.00 | 53 | 1001.0 |
| 20260505225437 | 83 | 213 | 1.7 | 5.2 | 0.00 | 0.00 | 0.00 | 55 | 1001.0 |
| 20260505223335 | 83 | 230 | 2.6 | 6.1 | 0.00 | 0.00 | 0.00 | 53 | 1001.1 |
| 20260505222310 | 84 | 233 | 2.6 | 7.0 | 0.00 | 0.00 | 0.00 | 52 | 1001.1 |
| 20260505221243 | 84 | 214 | 1.7 | 7.0 | 0.00 | 0.00 | 0.00 | 52 | 1001.2 |
| 20260505220231 | 84 | 200 | 1.7 | 6.1 | 0.00 | 0.00 | 0.00 | 56 | 1001.1 |
| 20260505215209 | 84 | 227 | 1.7 | 6.1 | 0.00 | 0.00 | 0.00 | 55 | 1001.3 |
| 20260505214205 | 85 | 182 | 1.7 | 6.1 | 0.00 | 0.00 | 0.00 | 55 | 1001.2 |
| 20260505213148 | 84 | 211 | 1.7 | 7.8 | 0.00 | 0.00 | 0.00 | 55 | 1001.3 |
| 20260505212141 | 84 | 232 | 3.5 | 7.8 | 0.00 | 0.00 | 0.00 | 56 | 1001.3 |
| 20260505203713 | 83 | 234 | 1.7 | 6.1 | 0.00 | 0.00 | 0.00 | 59 | 1001.9 |
| 20260505202737 | 83 | 217 | 2.6 | 6.1 | 0.00 | 0.00 | 0.00 | 57 | 1001.9 |
| 20260505201707 | 83 | 246 | 0.9 | 5.2 | 0.00 | 0.00 | 0.00 | 61 | 1002.1 |
| 20260505200659 | 83 | 238 | 1.7 | 7.0 | 0.00 | 0.00 | 0.00 | 59 | 1002.3 |
| 20260505195657 | 83 | 229 | 1.7 | 7.0 | 0.00 | 0.00 | 0.00 | 60 | 1002.3 |
| 20260505193609 | 82 | 222 | 1.7 | 6.1 | 0.00 | 0.00 | 0.00 | 60 | 1002.5 |
| 20260505191349 | 81 | 210 | 2.6 | 7.8 | 0.00 | 0.00 | 0.00 | 64 | 1003.0 |
| 20260505190405 | 81 | 286 | 3.5 | 7.0 | 0.00 | 0.00 | 0.00 | 66 | 1003.0 |
| 20260505185417 | 81 | 271 | 2.6 | 7.0 | 0.00 | 0.00 | 0.00 | 67 | 1003.0 |
| 20260505184403 | 80 | 273 | 4.3 | 7.0 | 0.00 | 0.00 | 0.00 | 68 | 1003.1 |
| 20260505182251 | 80 | 232 | 2.6 | 7.8 | 0.00 | 0.00 | 0.00 | 70 | 1003.3 |
| 20260505180204 | 78 | 173 | 4.3 | 8.7 | 0.00 | 0.00 | 0.00 | 72 | 1003.5 |
| 20260505175153 | 77 | 256 | 3.5 | 9.6 | 0.00 | 0.00 | 0.00 | 72 | 1003.6 |
| 20260505172948 | 76 | 263 | 4.3 | 7.8 | 0.00 | 0.00 | 0.00 | 76 | 1003.7 |
| 20260505171949 | 76 | 269 | 3.5 | 7.8 | 0.00 | 0.00 | 0.00 | 75 | 1003.8 |
| 20260505170958 | 76 | 230 | 3.5 | 11.3 | 0.00 | 0.00 | 0.00 | 76 | 1003.9 |
| 20260505165927 | 75 | 212 | 4.3 | 11.3 | 0.00 | 0.00 | 0.00 | 76 | 1003.9 |
| 20260505164912 | 75 | 225 | 4.3 | 11.3 | 0.00 | 0.00 | 0.00 | 77 | 1003.9 |
| 20260505162731 | 74 | 209 | 4.3 | 9.6 | 0.00 | 0.00 | 0.00 | 78 | 1003.6 |
| 20260505161750 | 74 | 181 | 4.3 | 10.4 | 0.00 | 0.00 | 0.00 | 81 | 1003.6 |
| 20260505160752 | 72 | 221 | 4.3 | 10.4 | 0.00 | 0.00 | 0.00 | 81 | 1003.7 |
| 20260505152745 | 70 | 214 | 4.3 | 9.6 | 0.00 | 0.00 | 0.00 | 84 | 1003.7 |
| 20260505150658 | 69 | 230 | 4.3 | 8.7 | 0.00 | 0.00 | 0.00 | 85 | 1003.6 |
| 20260505140422 | 66 | 235 | 3.5 | 7.8 | 0.00 | 0.00 | 0.00 | 89 | 1003.7 |